QPF
0.01 0.01 0.02 0.03 0.02 0.02 0.02 0.03 0.03 0.03 0.03 0.03 0.03 0.03 0.02 0.02 0.03 0.04 0.05 0.05 0.05 0.05 0.06 0.07 0.07 0.05 0.04 0.03 0.02 0.03 0.02 0.02 0.01 0.02 0.02 0.02 0.03 0.04 0.03 0.02 0.02 0.03 0.04
0.01 0.01 0.02 0.03 0.02 0.02 0.03 0.03 0.02 0.02 0.02 0.03 0.03 0.03 0.03 0.04 0.04 0.03 0.03 0.05 0.04 0.04 0.06 0.05 0.04 0.04 0.04 0.03 0.02 0.02 0.02 0.02 0.01 0.01 0.01 0.01 0.02 0.02 0.02 0.02 0.03 0.03 0.05
0.01 0.01 0.02 0.02 0.02 0.02 0.03 0.03 0.03 0.02 0.02 0.02 0.03 0.03 0.04 0.04 0.04 0.03 0.03 0.04 0.05 0.03 0.03 0.03 0.02 0.03 0.03 0.03 0.02 0.02 0.02 0.01 0.01 0.01 0.01 0.01 0.01 0.03 0.03 0.02 0.03 0.04 0.05
0.01 0.01 0.02 0.03 0.02 0.02 0.03 0.03 0.02 0.02 0.02 0.02 0.03 0.04 0.04 0.04 0.04 0.05 0.04 0.05 0.06 0.03 0.02 0.01 0.02 0.02 0.03 0.03 0.02 0.02 0.02 0.02 0.01 0.01 0.00 0.01 0.01 0.04 0.04 0.03 0.03 0.04 0.05
0.01 0.02 0.03 0.03 0.03 0.03 0.03 0.03 0.03 0.03 0.02 0.02 0.03 0.04 0.04 0.04 0.04 0.03 0.03 0.05 0.05 0.04 0.02 0.02 0.02 0.02 0.02 0.03 0.02 0.02 0.01 0.01 0.01 0.01 0.01 0.02 0.02 0.04 0.04 0.04 0.04 0.03 0.04
0.01 0.02 0.03 0.04 0.05 0.05 0.04 0.03 0.03 0.03 0.02 0.02 0.03 0.04 0.04 0.04 0.04 0.03 0.03 0.03 0.04 0.04 0.03 0.02 0.02 0.02 0.03 0.03 0.03 0.02 0.02 0.01 0.01 0.02 0.03 0.03 0.02 0.04 0.04 0.04 0.04 0.04 0.03
0.01 0.01 0.03 0.04 0.03 0.03 0.03 0.02 0.02 0.02 0.02 0.02 0.02 0.03 0.03 0.03 0.04 0.04 0.04 0.03 0.03 0.03 0.03 0.02 0.01 0.01 0.02 0.03 0.03 0.02 0.02 0.01 0.01 0.01 0.02 0.03 0.04 0.07 0.06 0.04 0.04 0.04 0.04
0.01 0.01 0.02 0.03 0.02 0.01 0.01 0.01 0.01 0.02 0.02 0.02 0.02 0.02 0.02 0.02 0.03 0.04 0.04 0.03 0.03 0.03 0.02 0.01 0.01 0.01 0.02 0.02 0.03 0.02 0.02 0.01 0.01 0.01 0.01 0.02 0.04 0.08 0.08 0.06 0.04 0.04 0.04
0.01 0.01 0.01 0.01 0.01 0.01 0.01 0.01 0.01 0.01 0.01 0.01 0.02 0.01 0.01 0.01 0.02 0.03 0.03 0.04 0.04 0.04 0.02 0.01 0.01 0.01 0.01 0.01 0.02 0.02 0.02 0.01 0.01 0.01 0.01 0.01 0.03 0.06 0.06 0.05 0.04 0.04 0.03
0.01 0.01 0.01 0.01 0.01 0.00 0.01 0.01 0.01 0.01 0.01 0.01 0.01 0.00 0.00 0.01 0.01 0.02 0.03 0.03 0.04 0.06 0.04 0.02 0.01 0.01 0.01 0.02 0.01 0.02 0.01 0.01 0.00 0.00 0.01 0.01 0.03 0.04 0.04 0.04 0.04 0.03 0.03
0.01 0.01 0.01 0.01 0.01 0.00 0.01 0.01 0.01 0.01 0.01 0.01 0.01 0.00 0.00 0.00 0.00 0.01 0.02 0.02 0.04 0.05 0.05 0.03 0.02 0.01 0.01 0.02 0.02 0.02 0.01 0.01 0.00 0.00 0.00 0.01 0.03 0.03 0.03 0.03 0.03 0.03 0.03
0.01 0.01 0.01 0.01 0.01 0.01 0.01 0.01 0.01 0.01 0.01 0.01 0.00 0.00 0.00 0.00 0.00 0.00 0.01 0.02 0.03 0.04 0.04 0.04 0.03 0.02 0.01 0.02 0.03 0.04 0.02 0.01 0.01 0.00 0.00 0.01 0.03 0.04 0.03 0.02 0.03 0.03 0.03
0.01 0.01 0.01 0.01 0.01 0.01 0.02 0.02 0.02 0.02 0.02 0.01 0.00 0.00 0.00 0.00 0.00 0.00 0.01 0.02 0.02 0.03 0.04 0.04 0.04 0.03 0.02 0.01 0.02 0.04 0.03 0.02 0.01 0.00 0.00 0.01 0.02 0.04 0.03 0.02 0.02 0.03 0.03
0.01 0.01 0.02 0.01 0.01 0.01 0.02 0.02 0.02 0.03 0.04 0.03 0.01 0.01 0.01 0.01 0.01 0.01 0.01 0.01 0.02 0.02 0.03 0.03 0.04 0.03 0.02 0.01 0.02 0.02 0.02 0.02 0.01 0.01 0.01 0.01 0.02 0.04 0.04 0.03 0.03 0.03 0.04
0.02 0.02 0.02 0.02 0.01 0.01 0.01 0.02 0.02 0.03 0.03 0.04 0.03 0.02 0.01 0.01 0.02 0.02 0.02 0.02 0.02 0.02 0.03 0.04 0.04 0.04 0.02 0.02 0.02 0.01 0.01 0.01 0.01 0.01 0.01 0.01 0.01 0.03 0.04 0.04 0.04 0.04 0.05
0.01 0.02 0.03 0.02 0.01 0.01 0.01 0.01 0.02 0.02 0.03 0.03 0.03 0.03 0.03 0.02 0.02 0.03 0.02 0.01 0.02 0.03 0.05 0.05 0.05 0.04 0.03 0.02 0.02 0.01 0.01 0.01 0.01 0.01 0.01 0.01 0.01 0.02 0.03 0.05 0.05 0.04 0.06
0.01 0.02 0.02 0.03 0.02 0.02 0.02 0.01 0.01 0.01 0.02 0.02 0.01 0.01 0.02 0.03 0.03 0.03 0.03 0.02 0.03 0.04 0.06 0.06 0.06 0.06 0.04 0.03 0.03 0.02 0.02 0.02 0.02 0.01 0.01 0.01 0.01 0.01 0.02 0.04 0.06 0.05 0.06
0.01 0.02 0.02 0.03 0.03 0.02 0.02 0.02 0.02 0.02 0.02 0.02 0.02 0.02 0.02 0.01 0.02 0.03 0.03 0.03 0.04 0.05 0.06 0.07 0.07 0.06 0.05 0.04 0.04 0.04 0.04 0.03 0.03 0.02 0.02 0.02 0.02 0.01 0.02 0.03 0.05 0.05 0.06
0.01 0.01 0.02 0.02 0.03 0.02 0.02 0.01 0.01 0.02 0.02 0.02 0.02 0.02 0.03 0.02 0.01 0.01 0.02 0.03 0.04 0.04 0.05 0.06 0.07 0.05 0.04 0.03 0.03 0.04 0.05 0.05 0.04 0.04 0.03 0.03 0.03 0.02 0.02 0.02 0.03 0.04 0.04
0.02 0.02 0.02 0.02 0.03 0.02 0.02 0.01 0.01 0.02 0.03 0.03 0.03 0.02 0.03 0.03 0.02 0.02 0.02 0.03 0.04 0.03 0.03 0.05 0.05 0.05 0.04 0.03 0.02 0.03 0.03 0.04 0.06 0.06 0.06 0.05 0.04 0.03 0.03 0.03 0.03 0.03 0.04
0.02 0.03 0.04 0.04 0.04 0.03 0.01 0.01 0.01 0.01 0.02 0.03 0.05 0.04 0.02 0.02 0.02 0.01 0.01 0.01 0.02 0.02 0.02 0.03 0.04 0.04 0.04 0.04 0.03 0.02 0.03 0.04 0.04 0.05 0.06 0.07 0.06 0.04 0.04 0.04 0.04 0.04 0.04
0.02 0.03 0.04 0.05 0.05 0.05 0.02 0.01 0.01 0.01 0.01 0.01 0.04 0.06 0.04 0.01 0.01 0.01 0.01 0.01 0.01 0.02 0.02 0.02 0.04 0.05 0.04 0.04 0.03 0.02 0.03 0.05 0.04 0.04 0.04 0.06 0.08 0.07 0.05 0.04 0.04 0.05 0.05
0.02 0.04 0.04 0.05 0.05 0.05 0.03 0.01 0.01 0.01 0.01 0.01 0.02 0.05 0.07 0.04 0.01 0.01 0.01 0.01 0.01 0.02 0.02 0.03 0.04 0.05 0.05 0.04 0.04 0.03 0.03 0.04 0.04 0.05 0.04 0.04 0.06 0.08 0.07 0.05 0.04 0.04 0.04
0.02 0.04 0.04 0.05 0.05 0.04 0.03 0.01 0.01 0.01 0.02 0.02 0.01 0.03 0.06 0.07 0.03 0.01 0.01 0.01 0.01 0.01 0.01 0.02 0.03 0.05 0.06 0.04 0.04 0.04 0.04 0.03 0.04 0.04 0.05 0.05 0.04 0.05 0.08 0.08 0.06 0.04 0.04
0.02 0.04 0.05 0.05 0.05 0.04 0.02 0.01 0.01 0.01 0.01 0.02 0.02 0.03 0.04 0.06 0.05 0.02 0.01 0.01 0.01 0.01 0.01 0.01 0.02 0.03 0.05 0.06 0.04 0.04 0.04 0.03 0.03 0.04 0.05 0.05 0.05 0.05 0.06 0.07 0.07 0.05 0.04
0.03 0.04 0.05 0.05 0.05 0.03 0.02 0.01 0.01 0.01 0.01 0.01 0.01 0.02 0.03 0.05 0.05 0.03 0.01 0.01 0.01 0.02 0.02 0.02 0.02 0.02 0.03 0.04 0.05 0.04 0.04 0.04 0.04 0.04 0.04 0.05 0.06 0.06 0.05 0.06 0.06 0.05 0.04
MSLP
1020.74 1020.39 1020.04 1019.74 1019.51 1019.34 1019.19 1019.02 1018.80 1018.49 1018.09 1017.64 1017.17 1016.74 1016.38 1016.10 1015.90 1015.74 1015.60 1015.44 1015.24 1014.99 1014.73 1014.47 1014.26 1014.11 1014.04 1014.04 1014.07 1014.11 1014.12 1014.09 1014.00 1013.87 1013.71 1013.54 1013.38 1013.25 1013.13 1013.04 1012.97 1012.92 1012.88
1020.71 1020.36 1020.03 1019.75 1019.55 1019.41 1019.30 1019.17 1018.98 1018.70 1018.33 1017.92 1017.49 1017.09 1016.76 1016.51 1016.32 1016.18 1016.03 1015.85 1015.62 1015.34 1015.04 1014.73 1014.46 1014.25 1014.12 1014.04 1014.02 1014.01 1013.99 1013.96 1013.89 1013.80 1013.68 1013.56 1013.43 1013.31 1013.19 1013.08 1012.98 1012.90 1012.84
1020.67 1020.32 1019.99 1019.73 1019.56 1019.46 1019.40 1019.31 1019.17 1018.94 1018.63 1018.26 1017.88 1017.53 1017.23 1016.99 1016.81 1016.65 1016.48 1016.27 1016.00 1015.69 1015.34 1014.99 1014.66 1014.39 1014.18 1014.04 1013.94 1013.88 1013.84 1013.80 1013.75 1013.69 1013.62 1013.53 1013.44 1013.33 1013.21 1013.08 1012.96 1012.86 1012.79
1020.64 1020.27 1019.94 1019.70 1019.56 1019.51 1019.49 1019.47 1019.38 1019.21 1018.95 1018.64 1018.30 1017.98 1017.70 1017.47 1017.27 1017.08 1016.87 1016.62 1016.32 1015.97 1015.59 1015.20 1014.83 1014.51 1014.24 1014.03 1013.87 1013.76 1013.68 1013.62 1013.58 1013.55 1013.51 1013.46 1013.40 1013.30 1013.18 1013.04 1012.91 1012.79 1012.72
1020.65 1020.26 1019.93 1019.71 1019.61 1019.59 1019.62 1019.63 1019.59 1019.47 1019.27 1019.00 1018.71 1018.41 1018.14 1017.90 1017.67 1017.44 1017.19 1016.90 1016.56 1016.18 1015.77 1015.36 1014.97 1014.61 1014.30 1014.04 1013.82 1013.65 1013.53 1013.45 1013.41 1013.39 1013.37 1013.34 1013.28 1013.20 1013.08 1012.94 1012.80 1012.69 1012.63
1020.72 1020.32 1020.00 1019.80 1019.72 1019.73 1019.79 1019.83 1019.81 1019.72 1019.56 1019.32 1019.06 1018.79 1018.52 1018.26 1018.01 1017.74 1017.44 1017.10 1016.73 1016.33 1015.92 1015.51 1015.11 1014.73 1014.38 1014.07 1013.81 1013.59 1013.42 1013.30 1013.23 1013.19 1013.17 1013.14 1013.09 1013.00 1012.88 1012.75 1012.62 1012.52 1012.48
1020.88 1020.48 1020.18 1020.00 1019.94 1019.96 1020.02 1020.06 1020.05 1019.97 1019.82 1019.62 1019.39 1019.14 1018.88 1018.61 1018.32 1018.01 1017.67 1017.29 1016.90 1016.48 1016.07 1015.66 1015.26 1014.88 1014.51 1014.16 1013.84 1013.56 1013.33 1013.16 1013.05 1012.98 1012.93 1012.88 1012.82 1012.72 1012.60 1012.46 1012.34 1012.26 1012.25
1021.16 1020.77 1020.48 1020.33 1020.28 1020.29 1020.33 1020.35 1020.32 1020.23 1020.10 1019.92 1019.72 1019.50 1019.25 1018.99 1018.68 1018.34 1017.96 1017.54 1017.12 1016.69 1016.27 1015.87 1015.47 1015.08 1014.69 1014.31 1013.93 1013.59 1013.29 1013.05 1012.87 1012.74 1012.65 1012.56 1012.46 1012.35 1012.21 1012.08 1011.97 1011.92 1011.93
1021.56 1021.19 1020.94 1020.80 1020.75 1020.74 1020.74 1020.71 1020.65 1020.55 1020.42 1020.27 1020.11 1019.93 1019.72 1019.46 1019.15 1018.78 1018.36 1017.91 1017.45 1017.00 1016.57 1016.16 1015.76 1015.35 1014.93 1014.50 1014.07 1013.65 1013.27 1012.95 1012.69 1012.49 1012.33 1012.20 1012.06 1011.91 1011.76 1011.62 1011.52 1011.48 1011.52
1022.07 1021.75 1021.54 1021.42 1021.35 1021.30 1021.25 1021.16 1021.06 1020.94 1020.82 1020.71 1020.60 1020.47 1020.31 1020.07 1019.76 1019.37 1018.91 1018.41 1017.91 1017.42 1016.96 1016.53 1016.11 1015.68 1015.22 1014.74 1014.24 1013.74 1013.28 1012.86 1012.52 1012.24 1012.00 1011.80 1011.62 1011.44 1011.26 1011.11 1011.01 1010.98 1011.04
1022.68 1022.42 1022.25 1022.14 1022.06 1021.96 1021.84 1021.70 1021.55 1021.42 1021.32 1021.25 1021.20 1021.13 1021.02 1020.81 1020.50 1020.08 1019.58 1019.03 1018.48 1017.94 1017.44 1016.97 1016.52 1016.04 1015.54 1015.00 1014.42 1013.84 1013.28 1012.78 1012.34 1011.97 1011.67 1011.41 1011.17 1010.95 1010.75 1010.58 1010.48 1010.45 1010.52
1023.36 1023.17 1023.04 1022.94 1022.83 1022.68 1022.50 1022.31 1022.12 1021.98 1021.90 1021.88 1021.89 1021.88 1021.80 1021.62 1021.31 1020.86 1020.32 1019.72 1019.11 1018.52 1017.97 1017.45 1016.95 1016.42 1015.86 1015.24 1014.59 1013.92 1013.27 1012.68 1012.15 1011.70 1011.32 1011.00 1010.72 1010.46 1010.23 1010.05 1009.94 1009.92 1009.98
1024.08 1023.96 1023.87 1023.77 1023.63 1023.43 1023.19 1022.94 1022.73 1022.58 1022.53 1022.55 1022.61 1022.65 1022.61 1022.44 1022.11 1021.64 1021.06 1020.40 1019.74 1019.10 1018.50 1017.93 1017.37 1016.79 1016.16 1015.46 1014.72 1013.96 1013.22 1012.53 1011.91 1011.39 1010.95 1010.57 1010.25 1009.96 1009.71 1009.52 1009.40 1009.38 1009.44
1024.81 1024.75 1024.68 1024.57 1024.39 1024.15 1023.86 1023.57 1023.33 1023.19 1023.15 1023.21 1023.30 1023.37 1023.34 1023.17 1022.84 1022.34 1021.72 1021.03 1020.33 1019.64 1019.00 1018.39 1017.77 1017.12 1016.41 1015.63 1014.80 1013.94 1013.10 1012.32 1011.62 1011.03 1010.52 1010.10 1009.74 1009.44 1009.17 1008.98 1008.85 1008.82 1008.89
1025.50 1025.48 1025.43 1025.30 1025.08 1024.79 1024.46 1024.15 1023.90 1023.76 1023.73 1023.80 1023.91 1023.98 1023.96 1023.77 1023.42 1022.90 1022.26 1021.56 1020.84 1020.14 1019.47 1018.81 1018.14 1017.42 1016.62 1015.75 1014.81 1013.85 1012.90 1012.03 1011.25 1010.59 1010.04 1009.58 1009.19 1008.86 1008.59 1008.39 1008.26 1008.23 1008.29
1026.12 1026.12 1026.07 1025.92 1025.67 1025.34 1024.99 1024.66 1024.41 1024.27 1024.25 1024.32 1024.41 1024.47 1024.41 1024.21 1023.84 1023.32 1022.68 1021.98 1021.28 1020.58 1019.90 1019.22 1018.49 1017.70 1016.81 1015.83 1014.78 1013.70 1012.65 1011.68 1010.83 1010.10 1009.50 1009.01 1008.60 1008.25 1007.97 1007.75 1007.61 1007.57 1007.63
1026.64 1026.65 1026.58 1026.40 1026.13 1025.79 1025.43 1025.11 1024.87 1024.73 1024.70 1024.75 1024.81 1024.83 1024.74 1024.51 1024.13 1023.61 1023.00 1022.34 1021.67 1021.00 1020.33 1019.63 1018.86 1017.99 1017.00 1015.91 1014.74 1013.55 1012.40 1011.34 1010.40 1009.62 1008.97 1008.44 1008.00 1007.63 1007.32 1007.08 1006.93 1006.86 1006.90
1027.04 1027.04 1026.95 1026.76 1026.48 1026.15 1025.82 1025.52 1025.29 1025.17 1025.13 1025.14 1025.16 1025.12 1024.98 1024.72 1024.33 1023.84 1023.27 1022.67 1022.05 1021.43 1020.77 1020.06 1019.25 1018.31 1017.23 1016.03 1014.76 1013.46 1012.21 1011.07 1010.07 1009.23 1008.53 1007.96 1007.49 1007.08 1006.73 1006.45 1006.25 1006.14 1006.14
1027.30 1027.29 1027.20 1027.01 1026.75 1026.45 1026.16 1025.91 1025.72 1025.61 1025.56 1025.53 1025.49 1025.39 1025.20 1024.90 1024.51 1024.04 1023.53 1023.00 1022.45 1021.88 1021.26 1020.54 1019.70 1018.70 1017.54 1016.25 1014.88 1013.51 1012.19 1010.98 1009.92 1009.04 1008.30 1007.68 1007.16 1006.70 1006.29 1005.94 1005.66 1005.48 1005.42
1027.43 1027.42 1027.33 1027.16 1026.95 1026.72 1026.50 1026.31 1026.17 1026.08 1026.01 1025.94 1025.84 1025.67 1025.42 1025.09 1024.70 1024.27 1023.81 1023.35 1022.87 1022.35 1021.76 1021.06 1020.19 1019.16 1017.95 1016.60 1015.18 1013.76 1012.40 1011.16 1010.07 1009.15 1008.37 1007.71 1007.12 1006.59 1006.10 1005.65 1005.27 1004.99 1004.83
1027.43 1027.44 1027.37 1027.25 1027.11 1026.96 1026.83 1026.72 1026.64 1026.57 1026.49 1026.38 1026.21 1025.97 1025.67 1025.31 1024.91 1024.51 1024.10 1023.70 1023.29 1022.82 1022.27 1021.58 1020.72 1019.68 1018.46 1017.10 1015.68 1014.26 1012.90 1011.66 1010.57 1009.63 1008.82 1008.10 1007.44 1006.82 1006.23 1005.67 1005.17 1004.76 1004.48
1027.32 1027.37 1027.35 1027.29 1027.23 1027.17 1027.14 1027.12 1027.09 1027.05 1026.96 1026.81 1026.58 1026.28 1025.93 1025.53 1025.13 1024.74 1024.38 1024.03 1023.66 1023.25 1022.74 1022.08 1021.25 1020.23 1019.05 1017.74 1016.37 1015.00 1013.70 1012.50 1011.42 1010.48 1009.64 1008.87 1008.14 1007.43 1006.72 1006.04 1005.42 1004.88 1004.47
1027.15 1027.24 1027.27 1027.29 1027.31 1027.35 1027.41 1027.46 1027.49 1027.48 1027.38 1027.19 1026.91 1026.56 1026.16 1025.73 1025.32 1024.94 1024.60 1024.28 1023.96 1023.59 1023.12 1022.51 1021.73 1020.79 1019.69 1018.48 1017.21 1015.94 1014.73 1013.60 1012.57 1011.64 1010.77 1009.96 1009.16 1008.36 1007.55 1006.77 1006.03 1005.38 1004.85
1026.95 1027.08 1027.17 1027.25 1027.35 1027.47 1027.60 1027.72 1027.79 1027.79 1027.68 1027.47 1027.15 1026.76 1026.32 1025.87 1025.45 1025.07 1024.74 1024.45 1024.15 1023.81 1023.38 1022.83 1022.14 1021.29 1020.31 1019.24 1018.12 1016.99 1015.89 1014.85 1013.88 1012.96 1012.08 1011.23 1010.37 1009.50 1008.63 1007.77 1006.96 1006.23 1005.62
1026.76 1026.93 1027.06 1027.18 1027.34 1027.51 1027.70 1027.86 1027.96 1027.96 1027.85 1027.61 1027.27 1026.85 1026.39 1025.93 1025.50 1025.12 1024.79 1024.50 1024.22 1023.91 1023.52 1023.04 1022.43 1021.71 1020.88 1019.96 1019.00 1018.03 1017.06 1016.11 1015.19 1014.29 1013.40 1012.51 1011.62 1010.71 1009.81 1008.93 1008.10 1007.35 1006.72
1026.61 1026.80 1026.96 1027.11 1027.29 1027.49 1027.70 1027.87 1027.98 1027.98 1027.86 1027.62 1027.27 1026.84 1026.37 1025.91 1025.48 1025.10 1024.77 1024.48 1024.20 1023.91 1023.56 1023.13 1022.62 1022.02 1021.33 1020.58 1019.78 1018.95 1018.10 1017.23 1016.36 1015.47 1014.58 1013.67 1012.76 1011.86 1010.98 1010.14 1009.36 1008.66 1008.06
Thickness
5656 5659 5662 5665 5668 5670 5671 5673 5674 5676 5677 5678 5680 5681 5682 5683 5684 5686 5687 5688 5689 5690 5691 5693 5694 5695 5696 5697 5698 5699 5700 5701 5702 5703 5704 5705 5705 5706 5706 5707 5708 5708 5708
5653 5656 5659 5661 5664 5666 5667 5668 5670 5671 5672 5673 5674 5676 5677 5678 5680 5681 5682 5683 5684 5686 5687 5688 5689 5690 5691 5692 5694 5695 5696 5697 5697 5699 5700 5701 5701 5702 5703 5703 5704 5704 5705
5651 5653 5655 5657 5659 5661 5662 5663 5664 5666 5667 5668 5669 5670 5672 5673 5674 5676 5677 5678 5679 5680 5681 5682 5684 5685 5686 5687 5689 5690 5691 5692 5693 5694 5695 5696 5697 5698 5699 5699 5700 5700 5701
5647 5648 5650 5652 5654 5655 5656 5657 5658 5660 5661 5662 5663 5664 5666 5667 5668 5670 5671 5672 5673 5674 5675 5677 5678 5679 5681 5682 5683 5685 5686 5687 5688 5689 5690 5691 5693 5694 5695 5695 5696 5696 5697
5642 5643 5645 5647 5648 5649 5650 5651 5652 5653 5654 5656 5657 5658 5659 5660 5662 5663 5664 5665 5667 5668 5669 5670 5672 5673 5675 5676 5678 5679 5680 5682 5683 5684 5685 5686 5688 5689 5690 5691 5691 5692 5692
5636 5637 5639 5640 5641 5642 5643 5644 5645 5646 5647 5649 5650 5651 5652 5653 5654 5656 5657 5659 5660 5661 5663 5664 5666 5667 5669 5671 5672 5673 5675 5676 5677 5678 5679 5681 5683 5684 5685 5686 5687 5687 5688
5630 5631 5632 5633 5634 5635 5636 5637 5638 5639 5640 5641 5642 5643 5644 5646 5647 5648 5649 5651 5653 5654 5656 5657 5659 5661 5663 5664 5666 5667 5669 5670 5671 5672 5674 5675 5677 5679 5680 5681 5681 5682 5683
5623 5624 5624 5625 5626 5627 5628 5629 5630 5630 5632 5633 5633 5634 5635 5637 5638 5639 5641 5643 5645 5647 5648 5650 5652 5654 5656 5657 5659 5660 5662 5663 5665 5666 5668 5669 5671 5673 5674 5675 5676 5677 5677
5615 5616 5616 5617 5617 5618 5619 5620 5621 5622 5623 5624 5624 5625 5626 5627 5629 5630 5632 5634 5636 5638 5640 5642 5644 5646 5648 5650 5651 5653 5654 5656 5657 5659 5661 5663 5665 5667 5668 5669 5670 5671 5672
5607 5607 5608 5608 5609 5610 5610 5611 5612 5612 5613 5614 5614 5615 5615 5617 5618 5620 5622 5625 5627 5629 5631 5633 5635 5637 5639 5641 5643 5645 5646 5648 5650 5652 5654 5655 5658 5660 5661 5662 5664 5665 5666
5599 5599 5599 5599 5600 5601 5601 5601 5602 5603 5603 5604 5604 5605 5606 5607 5608 5610 5612 5615 5617 5619 5621 5623 5625 5628 5630 5632 5634 5636 5638 5639 5641 5643 5645 5648 5650 5652 5654 5655 5657 5658 5659
5589 5589 5590 5591 5591 5591 5591 5591 5592 5593 5593 5594 5594 5595 5596 5597 5598 5599 5602 5604 5607 5609 5611 5613 5615 5618 5620 5622 5624 5627 5628 5630 5633 5635 5637 5639 5642 5644 5646 5648 5649 5651 5653
5582 5581 5581 5581 5582 5582 5582 5582 5582 5583 5584 5584 5585 5586 5586 5587 5588 5589 5591 5593 5596 5598 5600 5603 5605 5608 5609 5612 5614 5616 5618 5621 5623 5625 5628 5630 5633 5636 5638 5640 5642 5644 5646
5574 5573 5572 5573 5573 5572 5572 5572 5572 5573 5574 5574 5575 5576 5577 5577 5578 5579 5580 5582 5584 5586 5589 5591 5594 5597 5599 5601 5604 5606 5609 5611 5613 5616 5618 5621 5624 5627 5629 5631 5633 5635 5637
5565 5564 5564 5564 5563 5563 5563 5563 5563 5563 5564 5564 5565 5566 5567 5567 5567 5567 5569 5571 5573 5575 5577 5580 5582 5585 5588 5591 5593 5595 5598 5601 5603 5606 5609 5611 5614 5617 5619 5622 5624 5626 5629
5558 5556 5555 5555 5554 5554 5553 5553 5553 5553 5553 5554 5555 5555 5556 5556 5556 5557 5558 5559 5561 5564 5566 5568 5570 5573 5576 5579 5581 5584 5587 5590 5592 5595 5598 5601 5603 5606 5609 5612 5615 5617 5620
5550 5548 5546 5546 5545 5544 5544 5543 5543 5543 5543 5543 5544 5544 5545 5545 5545 5546 5546 5548 5549 5552 5554 5556 5558 5561 5564 5567 5570 5572 5575 5578 5581 5583 5586 5589 5592 5595 5598 5601 5604 5607 5610
5541 5539 5537 5537 5535 5534 5533 5532 5532 5532 5532 5532 5532 5533 5533 5533 5534 5534 5535 5536 5538 5540 5542 5544 5546 5548 5551 5553 5557 5560 5563 5566 5569 5572 5574 5577 5580 5583 5586 5589 5592 5595 5599
5532 5530 5528 5527 5525 5524 5523 5522 5521 5521 5521 5520 5521 5521 5521 5521 5522 5522 5523 5523 5525 5527 5529 5531 5532 5534 5536 5539 5543 5547 5550 5552 5556 5558 5561 5564 5567 5570 5573 5576 5580 5583 5586
5523 5520 5518 5516 5515 5513 5511 5511 5510 5509 5509 5508 5508 5508 5508 5509 5509 5510 5510 5510 5511 5513 5515 5516 5518 5519 5521 5524 5529 5532 5535 5538 5541 5544 5546 5549 5553 5556 5558 5562 5565 5569 5572
5512 5509 5507 5505 5503 5502 5500 5499 5498 5496 5495 5495 5495 5495 5495 5495 5495 5496 5496 5497 5498 5499 5500 5501 5503 5504 5506 5509 5512 5516 5520 5523 5526 5528 5530 5533 5537 5540 5543 5547 5550 5554 5557
5502 5499 5497 5495 5492 5491 5489 5487 5486 5484 5483 5482 5481 5481 5481 5481 5481 5481 5481 5482 5483 5484 5484 5485 5487 5488 5489 5490 5492 5496 5500 5506 5509 5512 5514 5516 5520 5523 5527 5530 5535 5539 5542
5492 5489 5487 5484 5481 5479 5477 5476 5474 5471 5469 5468 5467 5467 5466 5466 5465 5465 5466 5467 5467 5468 5468 5468 5469 5471 5472 5473 5473 5475 5478 5484 5488 5495 5498 5500 5502 5505 5509 5513 5518 5522 5527
5482 5479 5476 5473 5470 5468 5466 5464 5461 5459 5456 5454 5453 5451 5451 5450 5450 5450 5450 5451 5451 5452 5452 5452 5453 5454 5455 5456 5457 5457 5458 5461 5465 5474 5481 5483 5485 5488 5491 5495 5500 5505 5510
5473 5468 5465 5462 5459 5457 5455 5452 5448 5446 5443 5441 5439 5437 5436 5436 5435 5434 5434 5435 5435 5435 5435 5436 5436 5437 5438 5439 5440 5440 5442 5443 5446 5451 5461 5467 5469 5471 5474 5479 5483 5489 5494
5462 5458 5454 5451 5448 5446 5443 5440 5437 5433 5430 5427 5425 5423 5422 5421 5420 5419 5419 5418 5418 5418 5418 5419 5420 5420 5421 5422 5423 5424 5426 5428 5430 5433 5440 5447 5452 5456 5460 5464 5468 5473 5478